Location: Asheville, NC
(35.6000°N, 82.5500°W)
Time: 16:44:21
(UTC-05:00)

Vanguard 1 - Pass Details

Date: 10 February 2018
Orbit: 650 x 3833 km, 34.2° (Epoch: 17 February)

Event Time Altitude Azimuth Distance (km) Brightness Sun altitude
Rises 17:33:18 0° 236° (SW) 4,661 15.6 5.7°
Reaches altitude 10° 17:37:11 10° 230° (SW) 3,214 14.4 4.9°
Maximum altitude 17:43:52 41° 163° (SSE) 1,241 10.7 3.7°
Drops below altitude 10° 17:48:23 10° 92° (E) 2,171 11.3 2.8°
Sets 17:50:32 0° 84° (E) 2,994 11.9 2.4°
